OK1LPD-6 Weather Reports


Display with metric or nautical units.
time (UTC)temp
F
wind
direction
speed
MPH
gust
MPH
rain 1hr
in
rain 24hr
in
rain mn
in
humidity
%
barometer
mb
20260903122557 77 0 0.0 0.0 0.00 0.09 0.09 40 1019.2
20260903121617 77 0 0.0 0.0 0.00 0.09 0.09 40 1019.3
20260903120556 76 0 0.0 0.0 0.00 0.09 0.09 40 1019.3
20260903115557 77 0 0.0 0.0 0.00 0.09 0.09 40 1019.3
20260903114616 76 0 0.0 0.0 0.00 0.09 0.09 42 1019.6
20260903113557 76 0 0.0 0.0 0.00 0.09 0.09 41 1019.8
20260903112557 76 0 0.0 0.0 0.00 0.09 0.09 41 1019.7
20260903111618 77 0 0.0 0.0 0.00 0.09 0.09 40 1019.8
20260903110557 78 0 0.0 0.0 0.00 0.09 0.09 40 1020.0
20260903105557 78 135 0.0 1.0 0.00 0.09 0.09 40 1020.0
20260903104617 77 0 0.0 0.0 0.00 0.09 0.09 40 1020.3
20260903103557 77 0 0.0 0.0 0.00 0.09 0.09 42 1020.4
20260903102558 77 0 0.0 0.0 0.00 0.09 0.09 40 1020.4
20260903101619 77 0 0.0 0.0 0.00 0.09 0.09 42 1020.5
20260903100558 76 0 0.0 0.0 0.00 0.09 0.09 41 1020.7
20260903095559 77 0 0.0 0.0 0.00 0.09 0.09 42 1020.6
20260903094618 76 0 0.0 0.0 0.00 0.09 0.09 42 1020.6
20260903093558 76 0 0.0 0.0 0.00 0.09 0.09 43 1020.7
20260903092558 76 0 0.0 0.0 0.00 0.09 0.09 42 1020.6
20260903091621 75 0 0.0 0.0 0.00 0.09 0.09 46 1020.6
20260903090558 76 0 0.0 0.0 0.00 0.09 0.09 45 1020.6
20260903085558 77 0 0.0 0.0 0.00 0.09 0.09 44 1020.6
20260903084618 75 0 0.0 0.0 0.00 0.09 0.09 54 1021.0
20260903083600 73 0 0.0 0.0 0.00 0.09 0.09 52 1021.1
20260903082559 74 0 0.0 0.0 0.00 0.09 0.09 52 1020.9
20260903081615 75 0 0.0 0.0 0.00 0.09 0.09 53 1020.8
20260903080559 74 0 0.0 0.0 0.00 0.09 0.09 56 1021.0
20260903075559 73 0 0.0 0.0 0.00 0.09 0.09 57 1021.0
20260903074610 73 0 0.0 0.0 0.00 0.09 0.09 60 1021.1
20260903073559 73 0 0.0 0.0 0.00 0.09 0.09 58 1021.2
20260903072600 72 0 0.0 0.0 0.00 0.09 0.09 63 1021.2
20260903071611 71 0 0.0 0.0 0.00 0.09 0.09 65 1021.2
20260903070600 72 0 0.0 0.0 0.00 0.09 0.09 67 1021.1
20260903065600 71 0 0.0 0.0 0.00 0.09 0.09 68 1021.1
20260903064610 70 0 0.0 0.0 0.00 0.09 0.09 73 1021.2
20260903063559 66 0 0.0 0.0 0.00 0.09 0.09 78 1021.1
20260903062600 64 0 0.0 0.0 0.00 0.09 0.09 81 1021.0
20260903061612 62 0 0.0 0.0 0.00 0.09 0.09 87 1021.0
20260903060600 61 0 0.0 0.0 0.00 0.09 0.09 90 1021.0
20260903055600 61 0 0.0 0.0 0.00 0.09 0.09 90 1020.9
20260903054611 61 0 0.0 0.0 0.00 0.09 0.09 90 1020.9
20260903053601 61 0 0.0 0.0 0.00 0.09 0.09 92 1020.8
20260903052601 61 0 0.0 0.0 0.00 0.09 0.09 97 1020.9
20260903051613 59 0 0.0 0.0 0.00 0.09 0.09 98 1020.7
20260903050600 58 0 0.0 0.0 0.00 0.09 0.09 97 1020.7
20260903045601 58 0 0.0 0.0 0.00 0.09 0.09 97 1020.9
20260903044612 58 0 0.0 0.0 0.00 0.09 0.09 97 1020.8
20260903043601 58 0 0.0 0.0 0.00 0.09 0.09 97 1020.8
20260903042601 58 0 0.0 0.0 0.00 0.09 0.09 96 1020.8
20260903041622 58 0 0.0 0.0 0.00 0.09 0.09 96 1020.7
20260903040601 58 0 0.0 0.0 0.00 0.09 0.09 96 1020.6
20260903035601 58 0 0.0 0.0 0.00 0.09 0.09 97 1020.7
20260903034621 58 0 0.0 0.0 0.00 0.09 0.09 97 1020.7
20260903033602 58 0 0.0 0.0 0.00 0.09 0.09 97 1020.6
20260903032602 58 0 0.0 0.0 0.00 0.09 0.09 97 1020.5
20260903031624 58 0 0.0 0.0 0.00 0.09 0.09 97 1020.7
20260903030602 58 0 0.0 0.0 0.00 0.09 0.09 97 1020.6
20260903025602 58 0 0.0 0.0 0.00 0.09 0.09 97 1020.8
20260903024622 58 0 0.0 0.0 0.00 0.09 0.09 97 1020.7
20260903023602 58 0 0.0 0.0 0.00 0.09 0.09 97 1020.6
20260903022602 58 0 0.0 0.0 0.00 0.09 0.09 97 1020.4
20260903021625 58 0 0.0 0.0 0.00 0.09 0.09 97 1020.4
20260903020602 58 181 0.0 1.0 0.00 0.09 0.09 97 1020.5
20260903015603 58 0 0.0 0.0 0.00 0.09 0.09 97 1020.4
20260903014623 58 0 0.0 0.0 0.00 0.09 0.09 97 1020.4
20260903013603 58 0 0.0 0.0 0.00 0.09 0.09 97 1020.7
20260903012602 58 0 0.0 0.0 0.00 0.09 0.09 97 1020.6
20260903011625 58 0 0.0 0.0 0.00 0.09 0.09 97 1020.7
20260903010603 58 0 0.0 0.0 0.00 0.09 0.09 96 1020.7
20260903005603 58 0 0.0 0.0 0.00 0.09 0.09 96 1020.7
20260903004622 58 0 0.0 0.0 0.00 0.09 0.09 96 1020.7
20260903003603 58 0 0.0 0.0 0.00 0.09 0.09 96 1020.6
20260903002604 58 0 0.0 0.0 0.00 0.09 0.09 95 1020.5
20260903001626 58 0 0.0 0.0 0.00 0.09 0.09 95 1020.5
20260903000604 58 0 0.0 0.0 0.00 0.09 0.09 95 1020.5
20260902235604 58 0 0.0 0.0 0.00 0.09 0.09 96 1020.7
20260902234624 58 0 0.0 0.0 0.00 0.09 0.09 96 1020.6
20260902233604 58 0 0.0 0.0 0.00 0.09 0.09 96 1020.5
20260902232603 58 0 0.0 0.0 0.00 0.09 0.09 96 1020.5
20260902231626 58 0 0.0 0.0 0.00 0.09 0.09 96 1020.6
20260902230604 58 0 0.0 0.0 0.00 0.09 0.09 95 1020.7
20260902225604 59 0 0.0 0.0 0.00 0.09 0.09 95 1020.6
20260902224624 58 0 0.0 0.0 0.00 0.09 0.09 95 1020.7
20260902223604 59 0 0.0 0.0 0.00 0.09 0.09 95 1020.7
20260902222604 59 0 0.0 0.0 0.00 0.09 0.09 94 1020.8
20260902221626 59 0 0.0 0.0 0.00 0.09 0.09 94 1020.7
20260902220604 59 0 0.0 0.0 0.00 0.09 0.09 93 1020.7
20260902215605 59 0 0.0 0.0 0.00 0.09 0.09 93 1020.6
20260902214625 60 0 0.0 0.0 0.00 0.09 0.09 92 1020.6
20260902213605 60 0 0.0 0.0 0.00 0.09 0.09 92 1020.7
20260902212605 60 0 0.0 0.0 0.00 0.09 0.09 92 1020.5
20260902211627 60 0 0.0 0.0 0.00 0.09 0.09 91 1020.5
20260902210605 60 0 0.0 0.0 0.00 0.09 0.09 91 1020.4
20260902205605 61 0 0.0 0.0 0.00 0.09 0.09 91 1020.6
20260902204624 61 0 0.0 0.0 0.00 0.09 0.09 91 1020.4
20260902203606 61 0 0.0 0.0 0.00 0.09 0.09 91 1020.4
20260902202605 62 90 0.0 1.0 0.00 0.09 0.09 91 1020.3
20260902201625 62 0 0.0 0.0 0.00 0.09 0.09 91 1020.7
20260902200606 61 0 0.0 0.0 0.00 0.09 0.09 92 1020.7
20260902195606 61 0 0.0 0.0 0.00 0.09 0.09 92 1020.1
20260902194617 61 0 0.0 0.0 0.00 0.09 0.09 91 1020.0
20260902193606 61 0 0.0 0.0 0.00 0.09 0.09 90 1020.1
20260902192606 62 0 0.0 0.0 0.00 0.09 0.09 90 1020.2
20260902191618 62 0 0.0 0.0 0.01 0.09 0.09 88 1020.0
20260902190606 62 0 0.0 0.0 0.04 0.09 0.09 85 1019.8
20260902185607 63 0 0.0 0.0 0.08 0.09 0.09 85 1019.8
20260902184617 63 0 0.0 0.0 0.09 0.09 0.09 82 1019.6
20260902183606 64 0 0.0 0.0 0.09 0.09 0.09 75 1019.6
20260902182607 64 0 0.0 0.0 0.09 0.09 0.09 74 1019.9
20260902181619 65 0 0.0 0.0 0.08 0.08 0.08 74 1020.1
20260902180607 67 0 0.0 0.0 0.06 0.06 0.06 67 1020.0
20260902175606 70 0 0.0 0.0 0.00 0.00 0.00 64 1019.5
20260902174617 71 0 0.0 0.0 0.00 0.00 0.00 57 1019.0
20260902173608 71 0 0.0 0.0 0.00 0.00 0.00 54 1018.9
20260902172607 72 0 0.0 0.0 0.00 0.00 0.00 52 1018.9
20260902171619 72 0 0.0 0.0 0.00 0.00 0.00 49 1018.8
20260902170607 74 0 0.0 0.0 0.00 0.00 0.00 47 1018.8
20260902165607 76 0 0.0 0.0 0.00 0.00 0.00 43 1018.9
20260902164618 78 0 0.0 0.0 0.00 0.00 0.00 40 1018.9
20260902163607 79 0 0.0 0.0 0.00 0.00 0.00 40 1018.9
20260902162607 79 0 0.0 0.0 0.00 0.00 0.00 39 1018.9
20260902161628 80 0 0.0 0.0 0.00 0.00 0.00 35 1018.8
20260902160608 82 0 0.0 0.0 0.00 0.00 0.00 31 1018.9
20260902155607 82 0 0.0 0.0 0.00 0.00 0.00 31 1018.9
20260902154627 83 0 0.0 0.0 0.00 0.00 0.00 31 1019.0
20260902153608 83 0 0.0 0.0 0.00 0.00 0.00 31 1018.8
20260902152609 81 0 0.0 0.0 0.00 0.00 0.00 37 1019.0
20260902151632 78 0 0.0 0.0 0.00 0.00 0.00 40 1019.2
20260902150609 80 0 0.0 0.0 0.00 0.00 0.00 36 1019.3
20260902145609 81 0 0.0 0.0 0.00 0.00 0.00 35 1019.3
20260902144626 82 0 0.0 0.0 0.00 0.00 0.00 31 1019.5
20260902143608 84 0 0.0 0.0 0.00 0.00 0.00 30 1019.4
20260902142609 83 0 0.0 0.0 0.00 0.00 0.00 31 1019.5
20260902141629 83 0 0.0 0.0 0.00 0.00 0.00 31 1019.6
20260902140608 82 0 0.0 0.0 0.00 0.00 0.00 31 1019.8
20260902135609 83 0 0.0 0.0 0.00 0.00 0.00 30 1019.7
20260902134627 82 0 0.0 0.0 0.00 0.00 0.00 31 1019.7
20260902133610 81 0 0.0 0.0 0.00 0.00 0.00 34 1019.8
20260902132609 82 0 0.0 0.0 0.00 0.00 0.00 30 1019.9
20260902131630 82 0 0.0 0.0 0.00 0.00 0.00 31 1019.9
20260902130609 80 0 0.0 0.0 0.00 0.00 0.00 34 1020.1
20260902125610 82 0 0.0 0.0 0.00 0.00 0.00 32 1020.3
20260902124627 81 0 0.0 0.0 0.00 0.00 0.00 36 1020.3
20260902123610 81 0 0.0 0.0 0.00 0.00 0.00 37 1020.3